CST,Max TemperatureF,Mean TemperatureF,Min TemperatureF,Max Dew PointF,MeanDew PointF,Min DewpointF,Max Humidity, Mean Humidity, Min Humidity, Max Sea Level PressureIn, Mean Sea Level PressureIn, Min Sea Level PressureIn, Max VisibilityMiles, Mean VisibilityMiles, Min VisibilityMiles, Max Wind SpeedMPH, Mean Wind SpeedMPH, Max Gust SpeedMPH,PrecipitationIn, CloudCover, Events, WindDirDegrees
2013-1-1,14,2,-10,8,-3,-15,83,71,58,30.35,30.27,30.12,10,10,10,12,6,14,0.00,4,,245
2013-1-2,27,13,-2,25,11,-6,87,80,73,30.15,30.06,29.96,10,6,2,17,8,22,T,6,Snow,231
2013-1-3,25,17,8,18,6,1,84,76,67,30.36,30.26,30.11,10,9,5,23,15,28,T,4,,290
2013-1-4,26,15,4,16,11,3,88,75,62,30.24,30.19,30.17,10,9,6,22,12,26,0.00,0,,236
2013-1-5,28,17,5,21,10,1,91,82,73,30.16,30.04,29.92,10,6,3,24,12,29,0.00,1,,245
2013-1-6,20,14,8,12,6,1,91,79,66,30.31,30.21,30.04,10,10,7,21,10,24,0.00,1,,274
2013-1-7,34,23,11,25,16,8,92,80,68,30.17,30.03,29.97,10,6,0,23,10,31,0.00,0,Fog,211
2013-1-8,36,22,7,30,15,5,92,82,72,30.04,29.97,29.85,10,4,0,25,10,31,0.00,1,Fog,184
2013-1-9,37,30,22,27,23,19,92,79,66,30.42,30.30,30.05,10,10,10,22,11,28,0.00,0,,235
2013-1-10,37,30,23,32,27,20,96,80,64,30.40,30.07,29.75,10,6,0,20,12,28,0.11,5,Fog-Rain,142
2013-1-11,41,37,33,40,36,32,100,96,92,29.73,29.55,29.44,7,1,0,16,10,21,0.00,8,Fog,166
2013-1-12,39,25,10,37,11,1,100,81,61,30.13,29.91,29.48,10,9,2,33,19,40,T,6,Snow,276
2013-1-13,12,8,3,3,-1,-6,79,71,63,30.34,30.16,30.02,10,10,7,22,13,24,T,4,,301
2013-1-14,23,14,4,11,5,-1,86,73,59,30.47,30.41,30.32,10,10,10,15,6,18,0.00,0,,241
2013-1-15,31,20,9,16,11,4,80,65,50,30.38,30.24,30.00,10,10,10,18,11,24,0.00,1,,203
2013-1-16,43,30,17,32,24,12,89,77,65,30.23,29.92,29.77,10,9,2,26,17,31,T,6,Rain-Snow,277
2013-1-17,30,18,6,19,11,0,84,65,45,30.46,30.39,30.27,10,10,10,18,8,22,0.00,5,,299
2013-1-18,47,35,23,30,26,19,88,71,53,30.31,29.97,29.82,10,10,10,31,16,38,0.00,0,,215
2013-1-19,46,26,6,31,20,-1,82,68,53,30.26,29.94,29.77,10,10,8,44,20,55,T,3,Snow,290
2013-1-20,13,8,2,3,-1,-5,79,70,61,30.45,30.35,30.26,10,8,2,26,15,32,T,6,Snow,305
2013-1-21,5,-2,-10,-2,-11,-18,75,65,54,30.44,30.35,30.27,10,9,2,25,16,32,T,2,Snow,305
2013-1-22,10,2,-7,4,-7,-13,78,67,55,30.47,30.40,30.31,10,10,6,13,7,16,T,3,Snow,276
2013-1-23,22,11,0,10,1,-12,76,61,46,30.59,30.31,30.16,10,10,2,31,16,37,T,5,Snow,307
2013-1-24,16,7,-2,1,-9,-14,62,52,41,30.69,30.52,30.25,10,10,10,24,12,29,0.00,2,,115
2013-1-25,27,15,2,14,4,-4,79,60,41,30.33,30.15,30.02,10,10,2,33,16,41,T,4,Snow,275
2013-1-26,26,13,-1,11,2,-6,79,62,45,30.40,30.30,30.18,10,10,10,22,11,29,0.00,4,,144
2013-1-27,32,28,24,31,26,12,92,71,50,30.16,29.92,29.77,10,4,1,23,13,29,0.16,8,Rain-Snow,142
2013-1-28,37,33,29,36,30,27,100,96,92,29.94,29.80,29.56,2,0,0,16,8,21,0.01,8,Fog-Rain,133
2013-1-29,38,34,30,37,32,25,100,89,78,29.68,29.60,29.53,10,4,0,26,13,32,0.02,8,Fog-Rain-Thunderstorm,320
2013-1-30,30,19,7,23,13,0,88,77,66,29.84,29.65,29.53,10,4,0,33,24,40,0.02,8,Fog-Snow,328
2013-1-31,7,0,-7,0,-8,-16,79,71,62,30.38,30.08,29.79,10,8,2,33,23,40,T,4,,306